STARS-AO

导读

STARS-AO是日本于2018年10月29日发射的航天器,是日本航天技术试验领域的又一实践成果。作为当地航天工程体系的组成部分,该卫星承载着相关技术验证任务,助力日本持续积累卫星研发与在轨运行经验,推动本国航天技术迭代,为后续航天任务开展奠定基础,丰富了人类航天活动的实践积累。

Basic Information
目录编号:
43679
目录名称:
STARS-AO
国际标识:
2018-084J
轨道中心:
EARTH
卫星名称:
STARS-AO
卫星全名:
--
卫星状态:
在轨 (已飞行2868 天)
发射日期:
2018-10-29 UTC
国别 :
日本 (JP)
星等 :
--
Orbit Information
数据来源 国际轨道数据
星历时间: 2026-09-05T09:27:07+0800
10小时前
查看轨道信息
半长轴: 6890.594km
偏心率: 0.0000683
轨道倾角: 98.040°
近地点辐角 221.436°
升交点赤经 106.966°
平近点角 138.682°
近地点: 511.986km
远地点: 512.928km
周期: 94.873分钟
每日圈数: 15.178115
Detailed Information
使用方式:
暂无
2D Orbit Map
3D Orbit Map
Orbit Altitude Analysis Chart
Orbit Inclination Analysis Chart
Orbit Comprehensive Analysis Chart
View Comprehensive Chart
Conjunction Data List
Event ID Objects TCA Miss Dist (km) Collision Risk Probability Collision Risk Index (CRI) Action
CDM_260906-085404-367905-830024
STARS-AO (43679)
2026-09-06T
08:54:08+0000
0.654 km
远距离
1.048285E-4 高风险 0.75
CDM_260906-051304-367906-836124
STARS-AO (43679)
2026-09-06T
05:13:38+0000
1.387 km
极远距离
8.890133E-6 低风险 0.54
CDM_260907-193804-367906-836522
STARS-AO (43679)
2026-09-07T
19:38:50+0000
1.607 km
极远距离
5.470991E-6 低风险 0.5
CDM_260907-123004-367906-836223
STARS-AO (43679)
2026-09-07T
12:30:14+0000
2.319 km
极远距离
2.065355E-6 低风险 0.41
CDM_260906-174004-367906-836023
STARS-AO (43679)
2026-09-06T
17:40:31+0000
2.709 km
极远距离
1.562064E-6 低风险 0.39
CDM_260907-212904-367906-837221
STARS-AO (43679)
2026-09-07T
21:29:22+0000
2.791 km
极远距离
1.49503E-6 低风险 0.38
CDM_260907-225304-367906-837121
STARS-AO (43679)
2026-09-07T
22:53:23+0000
2.873 km
极远距离
1.435436E-6 低风险 0.38
CDM_260907-145204-367906-404822
STARS-AO (43679)
OBJECT A (64048)
2026-09-07T
14:52:21+0000
2.918 km
极远距离
1.368204E-6 低风险 0.38
CDM_260906-142904-367905-019821
STARS-AO (43679)
2026-09-06T
14:29:04+0000
2.327 km
极远距离
1.299585E-6 低风险 0.37